Location: Unspecified
(0.0000°N, 0.0000°E)
Time: 16:54:21
(UTC+01:00)

SJ-6B - Visible Passes

Search period start: 20 February 2017 00:00
Search period end: 02 March 2017 00:00
Orbit: 511 x 585 km, 97.8° (Epoch: 19 February)

Date Brightness Start Highest point End Pass type
(mag) Time Alt. Az. Time Alt. Az. Time Alt. Az.
20 Feb 4.7 20:41:15 10° SSW 20:44:59 33° WSW 20:48:41 10° NW visible
21 Feb 4.3 20:36:17 10° S 20:40:10 39° WSW 20:43:59 10° NNW visible
22 Feb 4.0 20:31:21 10° S 20:35:20 47° WSW 20:39:15 10° NNW visible
23 Feb 3.6 20:26:27 10° S 20:30:31 56° WSW 20:34:30 10° NNW visible
24 Feb 3.2 20:21:35 10° S 20:25:41 68° W 20:29:42 10° NNW visible
25 Feb 2.9 20:16:44 10° S 20:20:51 81° W 20:24:53 10° NNW visible
26 Feb 2.8 20:11:54 10° SSE 20:16:01 84° E 20:20:03 10° N visible
27 Feb 2.8 20:07:06 10° SSE 20:11:11 70° E 20:15:11 10° N visible
28 Feb 2.9 20:02:18 10° SSE 20:06:20 58° E 20:10:17 10° N visible
01 Mar 3.1 19:57:33 10° SSE 20:01:30 48° E 20:05:21 10° N visible
